This is the latest recevied weather packets stored in our database for station/object K5GHS-1. If no packets are shown the sender has not sent any weather packets the latest 1 day(s).
| Time | Temp. | Humidity | Pressure | Rain* | Wind** | Luminosity | Snow |
|---|---|---|---|---|---|---|---|
| 1777996847 | 26.11° C | 73% | 1002.7 hPa | 0 mm | 0.89 m/s, 144° | 251 W/m² | - |
| 1777996543 | 26.11° C | 73% | 1003.1 hPa | 0 mm | 1.34 m/s, 148° | 325 W/m² | - |
| 1777996239 | 26.11° C | 73% | 1002.8 hPa | 0 mm | 0.89 m/s, 137° | 413 W/m² | - |
| 1777995936 | 26.11° C | 73% | 1002.6 hPa | 0 mm | 0.89 m/s, 105° | 326 W/m² | - |
| 1777995632 | 26.11° C | 73% | 1002.5 hPa | 0 mm | 0.89 m/s, 88° | 349 W/m² | - |
| 1777995330 | 26.11° C | 74% | 1002.4 hPa | 0 mm | 0.45 m/s, 62° | 517 W/m² | - |
| 1777995026 | 25.56° C | 76% | 1002.6 hPa | 0 mm | 0.45 m/s, 45° | 592 W/m² | - |
| 1777994723 | 25° C | 77% | 1002.4 hPa | 0 mm | 0.45 m/s, 73° | 234 W/m² | - |
| 1777994419 | 25° C | 77% | 1002.8 hPa | 0 mm | 0.45 m/s, 66° | 216 W/m² | - |
| 1777994114 | 25° C | 77% | 1002.8 hPa | 0 mm | 1.34 m/s, 199° | 175 W/m² | - |
| 1777993812 | 25° C | 77% | 1002.8 hPa | 0 mm | 0.89 m/s, 82° | 150 W/m² | - |
| 1777993508 | 25° C | 76% | 1002.8 hPa | 0 mm | 0.45 m/s, 133° | 146 W/m² | - |
| 1777993204 | 25.56° C | 76% | 1003 hPa | 0 mm | 0.89 m/s, 62° | 158 W/m² | - |
| 1777992901 | 25.56° C | 75% | 1002.8 hPa | 0 mm | 0.45 m/s, 76° | 295 W/m² | - |
| 1777992599 | 25.56° C | 75% | 1003 hPa | 0 mm | 0.45 m/s, 75° | 272 W/m² | - |
| 1777992296 | 25.56° C | 76% | 1003.1 hPa | 0 mm | 0.45 m/s, 80° | 287 W/m² | - |
| 1777991993 | 25° C | 77% | 1003 hPa | 0 mm | 0.45 m/s, 116° | 321 W/m² | - |
| 1777991691 | 24.44° C | 80% | 1003 hPa | 0 mm | 0 m/s | 254 W/m² | - |
| 1777991388 | 23.89° C | 80% | 1002.6 hPa | 0 mm | 1.34 m/s, 143° | 183 W/m² | - |
| 1777991085 | 23.89° C | 81% | 1002.6 hPa | 0 mm | 0.89 m/s, 138° | 226 W/m² | - |
| 1777990782 | 23.89° C | 81% | 1002.6 hPa | 0 mm | 0.45 m/s, 147° | 185 W/m² | - |
| 1777990479 | 23.89° C | 81% | 1003 hPa | 0 mm | 1.79 m/s, 124° | 150 W/m² | - |
| 1777990177 | 23.33° C | 81% | 1002.8 hPa | 0 mm | 0.89 m/s, 125° | 186 W/m² | - |
| 1777989873 | 23.33° C | 82% | 1003 hPa | 0 mm | 0.45 m/s, 101° | 133 W/m² | - |
| 1777989571 | 23.33° C | 82% | 1003.1 hPa | 0 mm | 0.45 m/s, 73° | 108 W/m² | - |
* Rain latest hour (hover to see other rain measurements)
** Current wind speed in m/s (hover to see current wind gust speed)